Location: Alexandria
(38.8050°N, 77.0470°W)
Time: 23:22:53
(UTC-05:00)

Tiangong 1 - Pass Details

Date: 10 November 2017
Orbit: 285 x 308 km, 42.8° (Epoch: 20 November)

Event Time Altitude Azimuth Distance (km) Brightness Sun altitude
Exits shadow 06:04:05 13° 289° (WNW) 1,002 2.5 -8.5°
Maximum altitude 06:06:17 82° 204° (SSW) 299 0.5 -8.1°
Drops below altitude 10° 06:08:51 10° 114° (ESE) 1,152 5.2 -7.6°
Sets 06:10:49 0° 114° (ESE) 1,977 7.0 -7.2°
